Total_Precipitation_Accumulation
0.28 0.34 0.50 0.47 0.38 0.39 0.42 0.43 0.44 0.40 0.36 0.32 0.29 0.28 0.26 0.29 0.35 0.39 0.39 0.43 0.51 0.66 0.75 0.79 0.80 0.76 0.83 0.86 0.84 0.80 0.81 0.94 1.07 1.14 1.17 1.21 1.37 1.61 1.75 1.93 1.99 1.47 1.29
0.10 0.21 0.37 0.40 0.32 0.30 0.32 0.33 0.34 0.34 0.31 0.28 0.26 0.26 0.25 0.27 0.31 0.34 0.36 0.43 0.49 0.57 0.62 0.63 0.68 0.70 0.69 0.70 0.70 0.74 0.81 1.02 1.29 1.44 1.57 1.48 1.63 1.79 1.77 1.81 1.95 1.38 1.26
0.09 0.13 0.20 0.33 0.27 0.23 0.23 0.27 0.28 0.28 0.27 0.27 0.25 0.25 0.27 0.29 0.34 0.39 0.44 0.49 0.53 0.55 0.56 0.55 0.57 0.58 0.60 0.62 0.62 0.71 0.88 1.16 1.48 1.80 2.10 1.57 1.22 1.71 1.75 1.74 1.58 1.24 1.14
0.09 0.08 0.08 0.19 0.24 0.19 0.20 0.24 0.27 0.25 0.23 0.25 0.25 0.24 0.27 0.33 0.40 0.47 0.56 0.54 0.53 0.51 0.48 0.47 0.52 0.45 0.51 0.58 0.63 0.77 0.93 1.22 1.57 2.00 2.02 1.39 0.90 1.24 1.48 1.44 1.22 1.00 0.99
0.08 0.07 0.10 0.15 0.18 0.17 0.19 0.23 0.25 0.23 0.24 0.25 0.25 0.28 0.33 0.41 0.45 0.47 0.52 0.53 0.50 0.48 0.47 0.47 0.48 0.41 0.43 0.54 0.65 0.78 0.93 1.31 1.75 1.83 1.32 1.38 1.40 1.32 1.18 1.13 1.12 0.96 0.91
0.09 0.08 0.11 0.17 0.17 0.17 0.20 0.24 0.25 0.23 0.24 0.26 0.27 0.34 0.41 0.46 0.48 0.44 0.45 0.44 0.44 0.45 0.44 0.45 0.42 0.41 0.45 0.53 0.69 0.81 1.02 1.36 1.63 1.23 0.98 1.15 1.15 1.20 1.15 1.11 1.06 0.95 0.86
0.10 0.11 0.14 0.20 0.20 0.20 0.22 0.24 0.26 0.25 0.26 0.28 0.29 0.34 0.38 0.43 0.45 0.41 0.41 0.41 0.41 0.43 0.41 0.38 0.37 0.48 0.59 0.70 0.81 0.86 1.04 1.32 1.19 0.99 1.11 1.29 1.16 1.13 1.37 1.43 1.25 1.01 0.77
0.10 0.11 0.16 0.21 0.22 0.21 0.23 0.26 0.26 0.26 0.28 0.29 0.30 0.31 0.32 0.35 0.41 0.40 0.40 0.40 0.39 0.40 0.42 0.42 0.41 0.50 0.59 0.71 0.79 0.85 1.00 1.11 0.90 0.83 1.03 1.18 0.97 1.08 1.51 1.62 1.46 1.26 0.95
0.20 0.17 0.21 0.22 0.22 0.27 0.28 0.28 0.27 0.29 0.30 0.31 0.33 0.34 0.34 0.32 0.36 0.39 0.43 0.42 0.41 0.44 0.45 0.47 0.49 0.53 0.55 0.64 0.77 0.88 1.04 1.13 0.94 0.90 0.91 1.05 0.89 1.09 1.48 1.50 1.37 1.32 1.11
0.45 0.42 0.37 0.33 0.32 0.32 0.32 0.33 0.34 0.33 0.34 0.35 0.35 0.39 0.46 0.46 0.44 0.46 0.46 0.46 0.48 0.49 0.54 0.59 0.62 0.66 0.71 0.75 0.83 0.97 1.11 0.98 0.91 0.94 0.97 0.94 0.91 1.25 1.51 1.50 1.46 1.41 1.26
0.74 0.74 0.61 0.58 0.44 0.44 0.42 0.38 0.48 0.47 0.48 0.52 0.54 0.58 0.76 1.01 0.91 0.88 0.69 0.72 0.71 0.70 0.75 0.82 0.87 0.93 0.90 0.91 1.08 1.14 1.00 0.99 1.18 1.01 0.97 0.93 1.13 1.46 1.62 1.67 1.66 1.60 1.51
0.98 0.82 0.77 0.78 0.62 0.63 0.63 0.68 0.94 0.89 0.90 0.98 1.04 1.02 1.31 1.43 1.36 0.99 0.97 1.17 1.22 1.26 1.24 1.31 1.47 1.44 1.17 0.97 1.21 1.54 1.22 1.18 1.22 1.01 0.87 0.99 1.28 1.60 1.73 1.81 1.67 1.59 1.55
1.14 0.99 1.08 1.05 0.92 0.91 1.11 0.95 1.09 1.31 1.46 1.46 1.44 1.60 1.76 1.47 1.25 1.13 1.27 1.49 1.53 1.58 1.60 1.76 2.00 1.82 1.76 1.71 1.77 1.82 1.50 1.42 1.32 1.10 1.15 1.38 1.58 1.90 2.05 1.95 1.83 1.69 1.58
1.64 1.59 1.56 1.58 1.53 1.47 1.32 1.32 1.27 1.31 1.40 1.56 1.63 1.62 1.78 1.82 1.75 1.64 1.65 1.64 1.64 1.74 2.02 2.07 2.23 2.33 2.34 2.09 1.98 2.01 1.79 1.64 1.56 1.50 1.66 1.85 1.89 2.13 2.34 2.18 2.01 1.85 1.75
2.39 2.47 2.44 2.30 2.08 2.10 2.04 1.86 1.55 1.58 1.53 1.52 1.77 1.82 1.88 2.01 2.09 2.06 1.92 1.93 1.67 1.72 2.04 2.35 2.27 2.42 2.58 2.41 2.13 2.00 1.91 1.75 1.71 1.63 1.75 1.96 1.87 1.95 2.25 2.33 2.28 2.13 2.05
3.18 3.56 3.34 3.12 2.80 2.67 2.61 2.46 2.32 2.01 1.90 1.69 1.80 1.91 2.09 2.26 2.34 2.30 2.10 2.03 1.75 1.71 1.95 2.23 2.25 2.44 2.47 2.50 2.13 1.92 1.84 1.90 1.85 1.68 1.74 1.96 1.97 1.80 1.96 2.29 2.51 2.56 2.43
3.83 4.34 4.08 3.92 3.87 3.62 3.45 3.05 2.59 2.25 2.02 2.13 2.22 2.30 2.40 2.47 2.55 2.50 2.33 2.06 1.94 2.01 2.10 2.12 2.19 2.57 2.43 2.34 2.14 2.12 2.05 2.00 1.85 1.78 1.75 1.91 1.74 1.67 1.69 1.87 2.20 2.48 2.75
4.04 4.41 4.73 4.45 4.76 4.63 4.30 3.81 3.29 3.01 2.84 2.67 2.58 2.62 2.48 2.49 2.53 2.63 2.29 1.94 2.08 2.25 2.30 2.28 2.30 2.52 2.54 2.63 2.54 2.37 2.17 2.00 1.58 1.50 1.53 1.60 1.72 1.47 1.61 1.86 1.99 2.12 2.59
4.35 4.80 5.24 5.45 5.50 5.08 4.69 4.27 3.97 3.72 3.42 2.97 2.48 2.24 2.13 2.01 1.95 2.01 1.71 1.61 1.76 1.86 1.76 1.68 1.98 2.19 2.31 2.44 2.32 2.16 1.85 1.68 1.49 1.39 1.41 1.26 1.36 1.40 1.46 1.70 1.90 1.94 2.40
4.52 5.32 5.70 5.79 5.38 4.96 4.58 4.08 3.86 3.56 3.20 2.82 2.34 1.95 1.74 1.67 1.55 1.63 1.37 1.30 1.50 1.63 1.61 1.71 1.85 1.86 1.83 1.91 1.73 1.59 1.45 1.27 1.27 1.25 1.11 1.11 1.11 1.11 1.30 1.56 1.76 1.55 2.06
4.60 5.51 5.83 5.54 4.94 4.48 4.04 3.52 3.12 2.76 2.52 2.42 2.11 1.77 1.61 1.57 1.56 1.67 1.43 1.53 1.56 1.57 1.57 1.61 1.67 1.59 1.39 1.56 1.81 1.63 1.33 1.19 1.14 1.05 1.01 1.08 1.00 1.04 1.28 1.51 1.68 1.76 1.64
3.98 4.72 4.99 4.61 3.95 3.37 3.06 2.89 2.67 2.55 2.25 2.04 1.91 1.76 1.49 1.46 1.47 1.47 1.47 1.26 1.28 1.37 1.28 1.31 1.55 1.53 1.30 1.43 1.72 1.79 1.55 1.49 1.28 0.83 0.87 0.96 0.98 1.10 1.27 1.36 1.61 1.82 1.76
3.44 3.44 3.54 3.41 2.89 2.53 2.42 2.39 2.35 2.38 2.17 1.91 1.74 1.54 1.34 1.28 1.22 1.23 1.20 1.17 1.25 1.20 1.23 1.28 1.37 1.44 1.35 1.28 1.39 1.76 1.63 1.41 1.22 1.01 0.94 0.92 1.05 1.23 1.30 1.41 1.42 1.50 1.62
2.57 2.38 2.38 2.43 2.25 2.17 2.07 2.07 1.92 1.74 1.66 1.54 1.53 1.44 1.32 1.24 1.17 1.08 1.08 1.04 1.11 1.12 1.29 1.14 1.19 1.30 1.32 1.18 1.23 1.35 1.38 1.39 1.35 1.20 1.05 0.98 1.05 1.18 1.31 1.33 1.46 1.55 1.59
1.67 1.72 1.88 2.10 2.09 2.00 1.94 2.01 1.98 1.70 1.52 1.42 1.43 1.46 1.33 1.21 1.14 1.07 1.06 1.10 1.11 1.09 1.11 1.15 1.30 1.25 1.21 1.16 1.16 1.24 1.37 1.38 1.27 1.26 1.21 1.08 1.02 0.93 1.07 1.31 1.50 1.67 1.64
1.09 1.22 1.42 1.78 1.92 1.83 1.77 1.79 1.75 1.65 1.58 1.44 1.32 1.31 1.28 1.19 1.17 1.20 1.16 1.20 1.15 1.12 1.12 1.12 1.18 1.18 1.21 1.25 1.17 1.15 1.31 1.40 1.31 1.30 1.21 1.09 1.01 0.86 0.91 1.14 1.50 1.79 1.82